+ View the NASA Portal
+ Center for Near-Earth Object Studies
IMPORTANT:
The SSD Announcement email list is now available. Major changes are coming in the near future, including possible hostname and/or URL changes. To be notified of such changes, subscribe to this email list.
Please visit
this page
for more details.
Don't show this message again
JPL Small-Body Database Browser
Search:
[
help
]
266414 (2007 FG38)
Classification:
Main-belt Asteroid
SPK-ID:
2266414
[
Ephemeris
|
Orbit Diagram
|
Orbital Elements
|
Mission Design
|
Physical Parameters
|
Discovery Circumstances
]
[ show orbit diagram ]
Orbital Elements at Epoch 2458600.5 (2019-Apr-27.0) TDB
Reference:
JPL 13
(heliocentric ecliptic J2000)
Element
Value
Uncertainty (1-sigma)
Units
e
.1550139387629181
1.0281e-07
a
2.6374429624709
3.6987e-08
au
q
2.228602540595746
2.7049e-07
au
i
10.66252615865852
9.3325e-06
deg
node
295.1969501108377
4.5774e-05
deg
peri
300.0290025690791
6.893e-05
deg
M
265.4444376128055
6.2529e-05
deg
t
p
2459011.420324699624
(2020-Jun-10.92032470)
0.00027687
TDB
period
1564.490899922969
4.28
3.291e-05
9.01e-08
d
yr
n
.2301068034449579
4.8404e-09
deg/d
Q
3.046283384346054
4.272e-08
au
Orbit Determination Parameters
# obs. used (total)
224
data-arc span
7648 days (20.94 yr)
first obs. used
1998-02-23
last obs. used
2019-02-01
planetary ephem.
DE431
SB-pert. ephem.
SB431-N16
condition code
0
norm. resid. RMS
.59106
source
ORB
producer
Otto Matic
solution date
2019-Jul-14 09:14:00
Additional Information
Earth MOID
= 1.23815 au
Jupiter MOID
= 2.08693 au
T_jup
= 3.355
[ show covariance matrix ]
[
Ephemeris
|
Orbit Diagram
|
Orbital Elements
|
Mission Design
|
Physical Parameters
|
Discovery Circumstances
]
Physical Parameter Table
Parameter
Symbol
Value
Units
Sigma
Reference
Notes
absolute magnitude
H
15.9
n/a
MPO433729
diameter
diameter
4.689
km
0.376
urn:nasa:pds:neowise_diameters_albedos::2.0[mainbelt] (http://adsabs.harvard.edu/abs/2011ApJ...741...68M)
geometric albedo
albedo
0.042
0.009
urn:nasa:pds:neowise_diameters_albedos::2.0[mainbelt] (http://adsabs.harvard.edu/abs/2011ApJ...741...68M)
266414 (2007 FG38)
Discovered 2007-Mar-27 by Siding Spring Survey at Siding Spring
Reference:
20110218/Numbers.arc
Last Updated:
2011-02-22
Alternate Designations
2007 FG38
= 2002 AC101
[
Ephemeris
|
Orbit Diagram
|
Orbital Elements
|
Mission Design
|
Physical Parameters
|
Discovery Circumstances
]
2019-Dec-06 20:47 UT
(server date/time)
Site Manager:
Ryan S. Park
Webmaster
:
Alan B. Chamberlin